This is the latest recevied weather packets stored in our database for station/object K6CED. If no packets are shown the sender has not sent any weather packets the latest 10 day(s).
| Time | Temp. | Humidity | Pressure | Rain* | Wind** | Luminosity | Snow |
|---|---|---|---|---|---|---|---|
| 1788525547 | 15° C | 94% | 1015.6 hPa | 0 mm | - | 0 W/m² | - |
| 1788525241 | 15° C | 94% | 1015.6 hPa | 0 mm | - | 0 W/m² | - |
| 1788524937 | 15° C | 94% | 1015.6 hPa | 0 mm | - | 0 W/m² | - |
| 1788524636 | 15° C | 94% | 1015.5 hPa | 0 mm | - | 0 W/m² | - |
| 1788524331 | 14.44° C | 94% | 1015.5 hPa | 0 mm | - | 0 W/m² | - |
| 1788524028 | 14.44° C | 94% | 1015.6 hPa | 0 mm | - | 0 W/m² | - |
| 1788523723 | 14.44° C | 94% | 1015.4 hPa | 0 mm | - | 0 W/m² | - |
| 1788523419 | 13.89° C | 94% | 1015.6 hPa | 0 mm | - | 0 W/m² | - |
| 1788523114 | 14.44° C | 94% | 1015.6 hPa | 0 mm | - | 0 W/m² | - |
| 1788522809 | 13.89° C | 94% | 1015.7 hPa | 0 mm | - | 0 W/m² | - |
| 1788522504 | 13.89° C | 94% | 1015.9 hPa | 0 mm | - | 0 W/m² | - |
| 1788522198 | 13.89° C | 95% | 1015.8 hPa | 0 mm | - | 0 W/m² | - |
| 1788521894 | 13.89° C | 95% | 1015.8 hPa | 0 mm | - | 0 W/m² | - |
| 1788521593 | 13.89° C | 95% | 1015.8 hPa | 0 mm | - | 0 W/m² | - |
| 1788521288 | 13.89° C | 95% | 1015.7 hPa | 0 mm | - | 0 W/m² | - |
| 1788520983 | 13.33° C | 94% | 1015.7 hPa | 0 mm | - | 0 W/m² | - |
| 1788520679 | 12.78° C | 93% | 1015.5 hPa | 0 mm | - | 0 W/m² | - |
| 1788520374 | 12.22° C | 93% | 1015.6 hPa | 0 mm | - | 0 W/m² | - |
| 1788520069 | 12.22° C | 93% | 1015.6 hPa | 0 mm | - | 0 W/m² | - |
| 1788519763 | 12.22° C | 92% | 1015.7 hPa | 0 mm | - | 0 W/m² | - |
| 1788519458 | 12.22° C | 93% | 1015.6 hPa | 0 mm | - | 0 W/m² | - |
| 1788519158 | 12.78° C | 93% | 1015.4 hPa | 0 mm | - | 0 W/m² | - |
| 1788518848 | 12.78° C | 93% | 1015.3 hPa | 0 mm | - | 0 W/m² | - |
| 1788518544 | 12.78° C | 93% | 1015.4 hPa | 0 mm | - | 0 W/m² | - |
| 1788518241 | 12.78° C | 93% | 1015.4 hPa | 0 mm | - | 0 W/m² | - |
* Rain latest hour (hover to see other rain measurements)
** Current wind speed in m/s (hover to see current wind gust speed)